Regional Weather Roundup
Issued by NWS

Home | Current Version | Previous Version | Graphics & Text | Print | Product List | Glossary On
Versions: 1 2 3 4 5 6 7 8 9 10 11 12 13 14 15 16 17 18 19 20 21 22 23 24 25 26 27 28 29 30 31 32 33 34 35 36 37 38 39 40 41 42 43 44 45 46 47 48 49 50
000
ASUS45 KCYS 181710
RWRWY

WYOMING REGIONAL WEATHER ROUNDUP
NATIONAL WEATHER SERVICE CHEYENNE WY
1100 AM MDT THU SEP 18 2014

NOTE:  "FAIR" INDICATES FEW OR NO CLOUDS BELOW 12,000 FEET
WITH NO SIGNIFICANT WEATHER AND/OR OBSTRUCTIONS TO VISIBILITY.

WYZ001-181800-
YELLOWSTONE NATIONAL PARK

CITY           SKY/WX    TMP DP  RH WIND       PRES   REMARKS
LK YELLOWSTONE   N/A     54  48  80 W3        30.19R
W YELLOWSTONE  NOT AVBL

$$
WYZ002>013-054>058-071-098>099-181800-
NORTHERN WYOMING

CITY           SKY/WX    TMP DP  RH WIND       PRES   REMARKS
JACKSON        PTSUNNY   54  48  82 CALM      30.10R
CODY             N/A    N/A N/A N/A MISG        N/A
GREYBULL       PTSUNNY   72  46  39 NE6       29.86F
WORLAND        PTSUNNY   75  44  33 NW3       29.88F
SHERIDAN       PTSUNNY   71  54  54 N3        29.85R
BUFFALO        MOSUNNY   86  44  23 NW12G23   29.90S
GILLETTE       MOSUNNY   82  49  31 S13G20    29.87F
HULETT         FAIR      77  52  41 MISG      29.89
NEWCASTLE      FAIR      72  48  43 MISG      29.93

$$
WYZ014>020-022>026-101>103-181800-
CENTRAL WYOMING

CITY           SKY/WX    TMP DP  RH WIND       PRES   REMARKS
BIG PINEY      SUNNY     63  42  46 S6        30.13F
PINEDALE       SUNNY     70  36  28 S7        30.14S
DUBOIS         FAIR      68  39  34 CALM      30.09F
LANDER         PTSUNNY   72  42  34 N6        29.99
RIVERTON       PTSUNNY   68  47  46 VRB5      30.00F
CASPER         MOSUNNY   81  37  20 SW25      29.99F
DOUGLAS        MOSUNNY   77  44  30 S3        29.97F

$$
WYZ021-027>030-104>119-181800-
SOUTHERN WYOMING

CITY           SKY/WX    TMP DP  RH WIND       PRES   REMARKS
EVANSTON       SUNNY     73  43  33 SW15      30.13F
KEMMERER       SUNNY     72  37  28 S10       30.14F
FORT BRIDGER   FAIR      73  41  31 CALM      30.16S
ROCK SPRINGS   SUNNY     71  35  26 VRB3      30.12F
DIXON          FAIR      70  43  36 CALM      30.16F
RAWLINS        SUNNY     72  38  29 VRB5      30.13F
SARATOGA       FAIR      73  37  27 SE7       30.16F
LARAMIE        SUNNY     73  40  30 S7        30.17F
CHEYENNE       SUNNY     82  34  17 S7        30.09F
TORRINGTON     SUNNY     69  50  50 CALM      29.95F
PINE BLUFFS    FAIR      84  37  18 S5        30.03S

$$



USA.gov is the U.S. government's official web portal to all federal, state and local government web resources and services.